MIDAS 4 DEB, 194

Orbit data source: Space-Track

MIDAS 4 DEB, 194 is space debris in LEO originally from a launch on Sat, 21 Oct 1961 UTC via an ATLAS AGENA B launch vehicle from the Air Force Western Test Range (AFWTR). Debris objects in space refer to the collection of defunct objects orbiting the Earth. Examples of debris include non-operational satellites, rocket bodies, and fragments generated from explosions, collisions, or faulty payload assembly.

Loading next visibility...
Identifier
194, 1961-028C
Orbit
LEO
Country
Flag of USUS
Related business
Manufacturer
MIT-LL
Mission
Spacecraft
Bus & Motor
WESTFORD, Unknown motor
Mass
30 kg wet, 30 kg dry
Launch date (UTC)
1961-10-21 (64 years ago)
Launch vehicle
ATLAS AGENA B
Launch site
Air Force Western Test Range (AFWTR)
Object type
Payload
Rocket body
Debris
Shape & HBR
Cyl, 0.3 m
Radar Cross Section
0.094 m², Medium (>0.1 m² and < 1m²)

Expand to show TLE details & history
Last TLE update: 2 days ago

TLE from 2 days ago
0 MIDAS 4 DEB
1 00194U 61028C   25260.24568970  .00000063  00000-0  26766-1 0  9994
2 00194  95.8297 191.0822 0408699  90.0329 274.7347  8.70100651 29393
Epoch: 2025-09-17T05:53Z
TLE epoch observation values (Epoch: 2025-09-17T05:53:47.59Z)
Latitude
Longitude
106.20951°
Altitude
3,592.142 km
Speed
6.329 km/s
True Right ascension
12h 44m 19s
True Declination
0° 00' 00"
Sunlit
Object was in daylight at epoch
Visualization orbit readout
Latitude
Unknown
Longitude
Unknown
Altitude
Unknown
Speed
Unknown
Apparent Right ascension
Unknown
Apparent Declination
Unknown
Sunlit
N/A
Visualization observer readout
Local Sidereal Time
12:05:17
Azimuth
Unknown
Elevation
Unknown
Doppler factor
Unknown
Orbital elements
Apogee altitude
4,012.904 km
Perigee altitude
3,196.892 km
Semi-major axis
9,983.035 km
Eccentricity
0.04087
Inclination
95.8297°
RAAN
191.0822°
Arg. of periapsis
90.0329°
True anomaly
270.05279°
Mean anomaly
274.7347°
Eccentric anomaly
272.39507°
Mean motion
2.17595 °/min
Orbital period
165.44 mins
BSTAR
0.026766
Loading maneuver chart data...
Computing Atmospheric mass density...
Loading historical data...
Loading historical data...
Loading historical data...
Loading historical data...
Loading historical data...
Loading historical data...
Loading historical data...

Documentation

Showing up to 5 results
|